Tracking 19709 objects as of 18-Jun-2019
HD Live streaming from Space Station
objects crossing your sky now

DELTA 1 DEB

Track DELTA 1 DEB now!
10-day predictions


NORAD ID: 2707
Int'l Code: 1967-006D
Perigee: 1,235.6 km
Apogee: 1,467.4 km
Inclination: 101.9 °
Period: 112.6 minutes
Semi major axis: 7722 km
RCS: 0.0659 m2 (small)
Launch date: January 26, 1967
Source: United States (US)
Launch site: AIR FORCE WESTERN TEST RANGE (AFWTR)

Note: This is SATELLITE DEBRIS
aabbcc
Your satellite tracking list
Your tracking list is empty




NASA's NSSDC Master Catalog

Two Line Element Set (TLE):
1  2707U 67006D   19167.40340435 -.00000036 +00000-0 +55919-4 0  9995
2  2707 101.9319 336.2907 0150073 115.3895 275.1761 12.79277098445273
Source of the keplerian elements: AFSPC